Location: *
(47.3167°N, 3.5333°E)
Time: 06:27:59
(UTC+00:00)

Daily predictions for brighter satellites

Satellite Brightness Start Highest point End
(mag) Time Altitude Azimuth Time Altitude Azimuth Time Altitude Azimuth
H-2A R/B 2.1 18:50:14 10° SSE 18:55:20 60° ENE 19:00:19 10° N
Cosmos 1461 3.7 18:52:28 10° NNW 18:56:48 44° NE 19:01:15 10° ESE
Resurs 01 Rocket 3.2 18:55:14 10° ESE 18:58:13 18° ENE 19:01:12 10° NNE
Cosmos 2228 3.4 18:56:17 10° SSE 19:00:21 43° E 19:04:28 10° NNE
ATLAS 2AS CENTAUR R/B 2.9 18:52:43 10° NW 19:00:25 75° NE 19:07:27 10° SE
Nadezhda 1 Rocket 4.4 18:54:33 10° SSE 19:00:31 43° E 19:06:27 10° NNE
SeaSat 1 2.6 18:57:13 10° NNE 19:02:11 86° WNW 19:07:07 10° SSW
Cosmos 2251 Rocket 4.1 18:56:59 10° SSW 19:02:19 67° WNW 19:07:42 10° NNE
CZ-2C R/B 2.9 18:59:21 10° SSE 19:04:08 64° ENE 19:08:50 10° N
Cosmos 2154 Rocket 4.3 18:58:05 10° N 19:04:15 49° ENE 19:10:21 10° SSE
HJ-1C 4.2 19:01:44 10° S 19:05:02 55° W 19:08:23 10° NNW
Cosmos 2369 Rocket 3.3 19:00:09 10° NW 19:05:35 48° WSW 19:10:57 10° S
Cosmos 1758 Rocket 3.5 19:02:26 10° N 19:06:48 87° E 19:11:06 10° S
USA 186 1.8 19:04:10 10° SSE 19:07:25 62° ENE 19:10:32 10° N
Ariane Rocket 3.1 19:05:20 10° SSE 19:10:25 88° WSW 19:15:31 10° NNW
BREEZE M DEB (TANK) 4.5 18:58:25 10° SW 19:10:36 47° SSE 19:14:28 10° E
Cosmos 1140 Rocket 4.1 19:06:31 10° SSE 19:11:07 33° ESE 19:15:43 10° NE
SL-4 R/B 1.5 19:09:00 10° WSW 19:12:24 89° SSE 19:15:51 10° ENE
Cosmos 1953 Rocket 3.7 19:10:25 10° N 19:14:53 61° ENE 19:19:19 10° SSE
STARLINK-1234 3.1 19:12:42 10° WNW 19:15:38 54° NNE 19:18:03 14° E
Cosmos 1606 Rocket 3.6 19:11:16 10° S 19:15:40 67° E 19:20:06 10° NNE
Cosmos 1703 3.2 19:11:50 10° N 19:15:48 68° E 19:19:44 10° SSE
STARLINK-1209 3.0 19:13:19 10° WNW 19:16:14 57° NNE 19:18:37 14° ESE
Cosmos 1340 Rocket 3.5 19:13:20 10° SSE 19:17:01 34° E 19:20:42 10° NNE
Cosmos 1328 3.8 19:15:28 10° N 19:19:29 72° E 19:23:28 10° SSE
STARLINK-1203 4.5 19:15:29 10° WNW 19:19:31 43° NNE 19:23:23 11° E
STARLINK-1233 3.4 19:16:39 10° NW 19:19:44 49° NNE 19:22:13 14° E
STARLINK-1212 3.4 19:17:06 10° NW 19:20:10 49° NNE 19:22:37 14° E
STARLINK-1105 3.4 19:17:32 10° NW 19:20:37 49° NNE 19:23:04 15° E
MOS 1 4.3 19:15:01 10° SSE 19:20:41 86° ENE 19:26:24 10° NNW
STARLINK-1206 3.4 19:18:02 10° NW 19:21:05 49° NNE 19:23:29 15° E
Cosmos 614 Rocket 4.0 19:15:58 10° S 19:21:08 66° ESE 19:26:18 10° NNE
Cosmos 1190 Rocket 4.3 19:16:10 10° S 19:21:12 47° ESE 19:26:16 10° NNE
STARLINK-1247 3.4 19:18:28 10° NW 19:21:32 50° NNE 19:23:55 15° E
STARLINK-1227 3.4 19:18:54 10° NW 19:21:58 50° NNE 19:24:22 15° E
STARLINK-1218 3.4 19:19:22 10° NW 19:22:26 50° NNE 19:24:47 15° E
STARLINK-1226 3.4 19:19:48 10° WNW 19:22:52 51° NNE 19:25:13 16° E
STARLINK-1254 3.4 19:20:14 10° WNW 19:23:19 51° NNE 19:25:40 16° E
Cosmos 1908 3.2 19:19:47 10° S 19:23:36 64° E 19:27:28 10° NNE
STARLINK-1215 3.3 19:20:44 10° WNW 19:23:48 51° NNE 19:26:06 16° E
ERBS 4.0 19:21:22 10° NW 19:24:13 24° NNE 19:26:51 11° ENE
STARLINK-1231 3.3 19:21:11 10° WNW 19:24:15 51° NNE 19:26:31 16° E
Cosmos 2074 Rocket 4.2 19:18:21 10° N 19:24:40 79° W 19:30:57 10° S
STARLINK-1232 3.3 19:22:05 10° WNW 19:25:09 52° NNE 19:27:24 17° E
STARLINK-1225 4.5 19:21:35 10° WNW 19:25:34 43° NNE 19:29:09 12° E
STARLINK-1217 3.3 19:22:31 10° WNW 19:25:35 52° NNE 19:27:49 17° E
STARLINK-1208 3.3 19:22:58 10° WNW 19:26:03 53° NNE 19:28:17 17° E
STARLINK-1229 3.3 19:23:26 10° WNW 19:26:30 53° NNE 19:28:41 17° E
STARLINK-1271 3.3 19:23:52 10° WNW 19:26:57 53° NNE 19:29:07 17° E
STARLINK-1270 3.3 19:24:20 10° WNW 19:27:25 54° NNE 19:29:33 18° E
STARLINK-1154 3.3 19:24:46 10° WNW 19:27:51 54° NNE 19:29:59 18° E
APEX 4.3 19:21:53 10° NNW 19:28:29 90° NNE 19:33:48 10° SSE
STARLINK-1197 3.2 19:25:42 10° WNW 19:28:47 55° NNE 19:30:52 18° E
STARLINK-1189 3.2 19:26:08 10° WNW 19:29:13 55° NNE 19:31:17 18° E
Cosmos 1726 3.1 19:25:40 10° SSW 19:29:18 52° WNW 19:32:58 10° N
STARLINK-1198 3.2 19:26:36 10° WNW 19:29:41 55° NNE 19:31:44 19° E
STARLINK-1188 3.2 19:27:00 10° WNW 19:30:06 56° NNE 19:32:08 19° E
STARLINK-1230 4.4 19:26:33 10° WNW 19:30:33 44° NNE 19:33:55 14° E
STARLINK-1235 3.0 19:27:41 10° WNW 19:30:49 67° NNE 19:32:51 20° ESE
STARLINK-1187 3.1 19:28:06 10° WNW 19:31:14 62° NNE 19:33:16 20° ESE
Cosmos 1943 3.9 19:26:19 10° SW 19:31:54 60° WNW 19:37:34 10° NNE
STARLINK-67 2.4 19:29:22 10° WNW 19:31:56 68° SSW 19:33:19 23° SE
STARLINK-1199 3.2 19:28:58 10° WNW 19:32:05 57° NNE 19:34:04 20° E
SL-24 R/B 4.0 19:28:31 10° NNE 19:32:27 48° E 19:36:02 10° S
STARLINK-1191 3.2 19:29:25 10° WNW 19:32:32 58° NNE 19:34:30 20° E
STARLINK-1210 3.2 19:29:52 10° WNW 19:32:59 58° NNE 19:34:56 20° E
Cosmos 1656 Rocket 4.3 19:27:50 10° NNW 19:33:24 58° WSW 19:38:49 10° S
STARLINK-1221 3.2 19:30:20 10° WNW 19:33:28 59° NNE 19:35:23 20° E
DMSP B5D2-2 4.4 19:28:35 10° NNE 19:33:33 42° E 19:38:29 10° SSE
STARLINK-1219 3.2 19:30:46 10° WNW 19:33:53 59° NNE 19:35:49 21° E
STARLINK-1222 3.1 19:31:13 10° WNW 19:34:21 59° NNE 19:36:15 21° E
STARLINK-1211 3.1 19:31:42 10° WNW 19:34:49 60° NNE 19:36:41 21° E
Abrixas rocket 1.8 19:32:11 10° WNW 19:35:10 86° S 19:36:50 23° ESE
STARLINK-1214 3.1 19:32:07 10° WNW 19:35:14 60° NNE 19:37:06 21° E
STARLINK-1243 4.4 19:31:32 10° WNW 19:35:32 46° NNE 19:38:42 15° E
STARLINK-1245 3.1 19:32:37 10° WNW 19:35:43 60° NNE 19:37:32 22° E
STARLINK-1238 3.1 19:33:02 10° WNW 19:36:09 61° NNE 19:37:59 22° E
BREEZE-M DEB (TANK) 3.5 19:30:21 10° WNW 19:36:49 78° SSW 19:38:38 22° ESE
STARLINK-29 3.1 19:33:58 10° SW 19:37:03 48° SE 19:39:26 16° ENE
STARLINK-1205 3.1 19:33:58 10° WNW 19:37:05 62° NNE 19:38:51 23° E
STARLINK-1204 3.1 19:34:25 10° WNW 19:37:31 62° NNE 19:39:16 23° E
MetOp-A 4.1 19:35:06 10° SSE 19:40:25 71° ENE 19:45:46 10° N
STARLINK-1236 4.3 19:36:31 10° WNW 19:40:32 47° NNE 19:43:28 17° E
Cosmos 1610 Rocket 4.5 19:35:21 10° N 19:41:35 89° WSW 19:47:42 10° S
STARLINK-60 3.0 19:38:43 10° WSW 19:42:00 80° NNW 19:45:10 11° ENE
CZ-2C R/B 2.9 19:37:53 10° NNE 19:42:49 43° E 19:47:46 10° S
Cosmos 1697 Rocket 4.5 19:41:15 10° N 19:45:05 18° NE 19:48:22 12° ENE
Cosmos 407 Rocket 3.4 19:42:38 10° SSW 19:47:47 90° WNW 19:52:56 10° NNE
Terra 4.0 19:47:27 10° ENE 19:48:09 10° NE 19:48:51 10° NE
ARGOS 3.7 19:43:38 10° S 19:48:56 59° W 19:54:16 10° NNW
Cosmos 676 Rocket 4.1 19:45:06 10° S 19:50:10 50° ESE 19:55:16 10° NNE
STARLINK-1269 4.2 19:46:28 10° WNW 19:50:32 51° NNE 19:53:02 21° E
Meteor 1-11 4.4 19:44:55 10° NNW 19:50:41 79° W 19:56:21 10° S
Cosmos 1295 Rocket 4.5 19:48:07 10° N 19:54:28 86° E 20:00:49 10° S
STARLINK-1200 4.1 19:51:27 10° WNW 19:55:31 53° NNE 19:57:48 24° E
SL-24 R/B - RUBIN 2 4.3 19:52:17 10° SW 19:57:56 86° NW 20:04:21 10° NE
CZ-2C R/B 3.7 19:54:14 10° NNE 19:58:58 89° W 20:03:35 10° SSW
SPOT 3 Rocket 3.7 19:54:02 10° S 19:59:15 78° WSW 20:04:29 10° NNW
STARLINK-1192 4.0 19:56:27 10° WNW 20:00:32 55° NNE 20:02:36 27° E
Resurs 1-3 3.6 19:58:05 15° SSE 20:01:44 86° WSW 20:06:09 10° NNW
STARLINK-1201 2.9 20:02:11 10° WNW 20:05:28 89° SSW 20:06:17 48° ESE
COSMOS 2455 2.9 19:59:27 10° NW 20:05:32 85° WSW 20:09:32 22° SSE
STARLINK-1244 3.9 20:01:26 10° WNW 20:05:32 58° NNE 20:07:23 30° E
STARLINK-1228 2.9 20:04:14 10° WNW 20:06:56 51° SW 20:07:12 49° S
STARLINK-1138 3.9 20:06:24 10° WNW 20:10:32 61° NNE 20:12:10 33° E
Cosmos 1455 4.5 20:13:23 12° NE 20:13:23 12° NE 20:14:01 10° NE
MOS 1 Rocket 3.6 20:06:45 10° NNE 20:12:11 83° ESE 20:17:38 10° SSW
Cosmos 1954 Rocket 3.9 20:07:16 10° SSW 20:12:29 74° ESE 20:17:42 10° NNE
FALCON 9 DEB 3.0 20:09:19 10° WSW 20:12:49 84° SSE 20:14:16 33° ENE
IGS 5A 4.3 20:13:40 30° E 20:14:14 31° ENE 20:17:55 10° N
Cosmos 1980 Rocket 4.1 20:11:07 10° N 20:14:45 17° NE 20:17:17 13° ENE
STARLINK-1143 3.8 20:11:22 10° WNW 20:15:30 64° NNE 20:16:57 37° E
Cosmos 1892 3.4 20:13:21 10° N 20:16:57 35° ENE 20:17:06 35° E
STARLINK-52 2.8 20:14:16 10° WSW 20:17:29 89° SE 20:18:09 53° ENE
Cosmos 2058 Rocket 3.8 20:13:33 10° SSW 20:17:59 55° WNW 20:22:25 10° N
ATLAS CENTAUR R/B 3.3 20:15:44 10° N 20:18:18 16° NNE 20:19:27 15° NE
STARLINK-1241 3.7 20:16:24 10° WNW 20:20:33 68° NNE 20:21:46 42° E
BREEZE M DEB (TANK) 3.1 20:17:31 10° SW 20:20:48 54° SE 20:30:09 10° ENE
SPOT 1/Viking Rocket 4.1 20:21:21 33° ESE 20:22:53 41° ENE 20:27:46 10° N
Cosmos 2341 Rocket 4.1 20:17:17 10° N 20:23:42 80° W 20:29:06 15° S
ATLAS 5 CENTAUR R/B 2.2 20:19:37 10° SW 20:23:46 58° NW 20:28:29 10° NE
Cosmos 1825 4.1 20:21:28 10° NNE 20:23:21 17° NE 20:23:21 17° NE
CZ-4C R/B 3.9 20:18:27 10° NNW 20:24:31 33° NNE 20:29:17 18° E
STARLINK-1239 3.7 20:21:21 10° WNW 20:25:30 71° NNE 20:26:31 48° E
Cosmos 1763 Rocket 3.7 20:24:33 10° NNW 20:29:38 51° ENE 20:30:58 40° ESE
STARLINK-1240 3.6 20:26:20 10° WNW 20:30:29 76° NNE 20:31:18 55° E
Cosmos 921 Rocket 4.2 20:27:44 10° NW 20:31:38 38° WSW 20:34:07 19° SSW
Resurs 01 Rocket 2.1 20:31:53 25° S 20:34:17 57° W 20:38:40 10° NNW
H-2A R/B 4.4 20:31:25 10° SW 20:35:08 20° W 20:38:48 10° NW
STARLINK-1216 3.5 20:31:18 10° WNW 20:35:28 80° NNE 20:36:05 62° E
Cosmos 540 Rocket 4.4 20:31:26 10° N 20:36:02 31° ENE 20:36:54 29° ENE
Cosmos 2218 Rocket 3.9 20:30:12 10° N 20:36:27 82° E 20:39:41 31° SSE
Cosmos 1300 3.4 20:35:18 16° SSW 20:38:12 52° WNW 20:41:58 10° N
Meteor 2-12 Rocket 4.4 20:32:16 10° N 20:38:21 65° ENE 20:40:32 40° SE
Cosmos 1174 4.1 20:36:16 10° NNW 20:40:26 82° NE 20:41:25 56° SE
STARLINK-1237 3.4 20:36:17 10° WNW 20:40:26 85° NNE 20:40:51 71° ESE
Iridium 4 Rocket 2.8 20:37:26 10° N 20:41:37 71° E 20:41:55 67° ESE
Landsat 7 3.8 20:42:03 54° ESE 20:42:55 65° ENE 20:47:39 10° N
USA 234 3.3 20:37:10 10° ENE 20:43:33 53° SE 20:49:54 10° SSW
In-Cosmos 22 Rocket 4.3 20:39:03 10° NNW 20:44:56 83° W 20:47:33 35° S
STARLINK-1202 3.4 20:41:17 10° WNW 20:45:27 90° NNE 20:45:40 80° ESE
Cosmos 2082 Rocket 4.3 20:49:07 11° ENE 20:49:07 11° ENE 20:49:34 10° ENE
SAR-Lupe-2 3.6 20:42:25 10° N 20:46:00 76° WNW 20:46:11 74° WSW
Cosmos 1812 Rocket 3.4 20:46:09 53° S 20:47:08 89° W 20:51:30 10° N
Cosmos 220 Rocket 4.2 20:43:24 10° NNW 20:47:43 67° WSW 20:48:32 54° SSW
USA 245 4.4 20:46:41 39° SSE 20:49:04 89° ENE 20:55:32 10° NNW
SL-8 Rocket 4.2 20:44:23 10° NNW 20:50:41 69° W 20:54:31 25° S
ATLAS 2AS CENTAUR R/B 4.3 20:44:34 10° NW 20:50:42 29° WSW 20:55:54 12° SSW
RESURS DK-1 2.9 20:47:57 10° NNW 20:51:45 45° NE 20:51:45 45° NE
SL-4 R/B 2.6 20:48:57 10° WNW 20:52:12 40° N 20:52:28 39° N
Cosmos 864 Rocket 4.4 20:46:33 10° N 20:52:47 84° W 20:55:29 36° S
Cosmos 2181 Rocket 4.1 20:46:51 10° SSW 20:53:05 73° W 20:59:17 10° N
Cosmos 2058 3.0 20:49:33 10° NNW 20:53:40 71° W 20:54:05 64° SW
Cosmos 1833 Rocket 4.0 20:56:29 25° ENE 20:56:29 25° ENE 20:59:20 10° NE
STARLINK-1246 3.6 20:51:13 10° WNW 20:55:12 78° WSW 20:55:12 78° WSW
MetOp-B 4.4 20:53:18 36° S 20:55:28 66° WSW 21:00:50 10° NNW
USA 32 4.0 20:53:11 10° N 20:58:23 62° E 20:58:48 60° ESE
Meteor 2-10 Rocket 3.7 20:58:38 51° E 20:58:38 51° E 21:03:41 10° NNE
Cosmos 2151 3.4 20:55:13 10° N 20:58:42 48° NE 20:58:42 48° NE
STARLINK-1203 3.8 20:55:21 10° WNW 20:59:15 68° WSW 20:59:15 68° WSW
STARLINK-1224 3.7 20:56:13 10° WNW 21:00:00 69° W 21:00:00 69° W
ERBS 3.5 20:57:27 10° NW 20:59:49 41° WNW 20:59:49 41° WNW
Spot 2 Rocket 3.7 20:59:39 44° SSW 21:01:11 67° WSW 21:06:17 10° NNW
BREEZE-M DEB (TANK) 3.9 21:00:52 10° WNW 21:02:11 21° WNW 21:02:11 21° WNW
Cosmos 1850 Rocket 3.8 21:02:16 53° S 21:03:30 83° ESE 21:08:43 10° NNE
Cosmos 2366 rocket 4.2 20:58:07 10° NNW 21:04:13 67° W 21:06:58 34° SSW
STARLINK-1225 3.9 21:01:13 10° WNW 21:04:48 60° W 21:04:48 60° W
Cosmos 841 Rocket 3.6 21:02:42 10° NNW 21:07:57 60° ENE 21:08:12 60° ENE
COSMOS 2406 3.1 21:08:16 64° SSE 21:08:49 69° ESE 21:14:30 10° NNE
STARLINK-1230 4.2 21:06:11 10° WNW 21:09:34 53° W 21:09:34 53° W
Cosmos 1076 Rocket 4.3 21:06:21 10° NNW 21:10:28 46° W 21:11:04 43° WSW
Cosmos 1408 3.7 21:09:17 10° N 21:11:46 41° N 21:11:46 41° N
STARLINK-1243 4.4 21:11:10 10° WNW 21:14:20 46° W 21:14:20 46° W
Nadezhda 3 Rocket 4.0 21:15:55 59° ESE 21:16:25 61° E 21:22:37 10° NNE
Cosmos 468 Rocket 4.4 21:14:37 10° NNW 21:19:38 53° WSW 21:20:19 49° SW
SPOT 5 2.9 21:22:33 61° N 21:22:33 61° N 21:26:10 10° NNW
CZ-2C R/B 4.4 21:18:33 10° N 21:22:58 29° WNW 21:27:22 10° WSW
Terra 2.1 21:25:36 59° NNE 21:25:36 59° NNE 21:29:43 10° N
Cosmos 2369 3.6 21:21:30 10° NNW 21:27:11 73° ENE 21:27:19 73° ENE
ERS-1 Rocket 2.9 21:27:10 75° WSW 21:27:13 75° WSW 21:32:17 10° NNW
Cosmos 1570 Rocket 4.0 21:22:58 10° NNW 21:28:21 79° WSW 21:28:26 79° WSW
Cosmos 1697 Rocket 2.6 21:24:19 10° NNW 21:30:01 78° ENE 21:30:07 78° ENE
Cosmos-2242 3.8 21:33:27 50° NNW 21:33:27 50° NNW 21:36:48 10° N
Cosmos 489 Rocket 4.5 21:30:55 10° NNW 21:37:05 70° WSW 21:37:49 63° SSW
Cosmos 2239 Rocket 4.3 21:34:15 10° N 21:40:33 86° E 21:40:56 80° SSE
Cosmos 1821 Rocket 4.0 21:38:53 10° N 21:45:17 79° W 21:45:57 71° SSW
Cosmos 1455 4.1 21:48:16 29° NNW 21:48:16 29° NNW 21:50:33 10° N
Cosmos 1934 Rocket 3.9 21:41:56 10° N 21:48:02 70° ENE 21:48:02 70° ENE
SL-16 R/B 3.7 21:45:09 10° N 21:49:48 25° NE 21:50:12 25° NE
Cosmos 2360 Rocket 4.4 21:48:15 10° N 21:51:20 15° NE 21:53:00 13° NE
Cosmos 1656 4.4 21:47:09 10° NW 21:52:31 43° WSW 21:52:35 43° WSW
Cosmos 2322 Rocket 3.7 21:52:55 10° N 21:57:29 24° NE 21:57:48 24° NE
ATLAS CENTAUR R/B 3.4 21:53:55 10° NW 21:55:38 25° NW 21:55:38 25° NW
Mayak 0.9 21:55:01 10° NNE 21:56:22 20° NNE 21:56:22 20° NNE
Cosmos 1980 Rocket 2.4 21:54:07 10° NNW 21:59:03 65° N 21:59:03 65° N
Cosmos 1825 4.4 21:56:18 10° NNW 21:58:10 24° NW 21:58:10 24° NW
Meteor 2-3 Rocket 3.9 21:58:02 10° NNW 22:03:11 71° NNW 22:03:11 71° NNW
Cosmos 1605 Rocket 4.2 21:58:30 10° N 22:03:58 59° NE 22:03:58 59° NE
ATLAS 5 CENTAUR R/B 4.5 22:06:25 10° WNW 22:09:32 18° NNW 22:12:55 10° NNE
CZ-4C R/B 2.8 22:06:47 10° NW 22:13:58 88° NE 22:14:28 80° SE
USA 234 3.6 22:20:13 10° NE 22:26:40 63° NNW 22:33:06 10° WSW
Cosmos 2278 4.5 22:23:19 10° NW 22:27:38 47° WNW 22:27:38 47° WNW
Cosmos 2082 Rocket 2.9 22:30:54 48° NNE 22:30:54 48° NNE 22:34:59 10° NNE
Cosmos 1833 Rocket 3.5 22:38:06 45° NW 22:38:08 45° NW 22:43:33 10° NNE
Cosmos 2344 4.3 22:36:19 10° NW 22:45:57 83° SW 22:48:33 62° SSE
Terra 4.3 23:04:29 15° WNW 23:04:29 15° WNW 23:06:09 10° NW
Cosmos 1459 Rocket 4.5 23:07:55 10° N 23:12:56 57° N 23:12:56 57° N
Mayak 1.6 23:31:55 10° NNW 23:32:56 13° NW 23:32:56 13° NW
SL-16 R/B 3.5 23:28:47 10° NNW 23:32:03 35° NW 23:32:03 35° NW
Cosmos 2360 Rocket 3.3 23:31:00 10° NNW 23:34:45 40° N 23:34:45 40° N
Cosmos 2322 Rocket 3.5 23:36:27 10° NNW 23:39:36 34° NW 23:39:36 34° NW
Cosmos 1980 Rocket 4.4 23:39:20 10° WNW 23:40:49 15° WNW 23:40:49 15° WNW
